Time,TemperatureF,DewpointF,PressureIn,WindDirection,WindDirectionDegrees,WindSpeedMPH,WindSpeedGustMPH,Humidity,HourlyPrecipIn,Conditions,Clouds,dailyrainin,SoftwareType,DateUTC
2013-02-11 00:03:00,41.8,25.0,30.00,SSW,201,1.0,1.0,51,0.00,,,0.00,Wunderground v.1.15,2013-02-11 07:03:00,
2013-02-11 00:08:00,41.5,25.2,30.00,SSW,201,0.0,1.0,52,0.00,,,0.00,Wunderground v.1.15,2013-02-11 07:08:00,
2013-02-11 00:13:00,42.2,24.4,30.00,SW,227,0.0,2.0,49,0.00,,,0.00,Wunderground v.1.15,2013-02-11 07:13:00,
2013-02-11 00:18:00,43.1,24.7,30.00,WSW,239,3.0,3.0,48,0.00,,,0.00,Wunderground v.1.15,2013-02-11 07:18:00,
2013-02-11 00:23:00,43.3,24.4,30.00,WSW,238,0.0,1.0,47,0.00,,,0.00,Wunderground v.1.15,2013-02-11 07:23:00,
2013-02-11 00:28:00,43.5,24.6,30.00,WSW,240,1.0,2.0,47,0.00,,,0.00,Wunderground v.1.15,2013-02-11 07:28:00,
2013-02-11 00:33:00,44.0,24.5,30.00,WSW,240,0.0,2.0,46,0.00,,,0.00,Wunderground v.1.15,2013-02-11 07:33:00,
2013-02-11 00:38:00,43.8,24.9,30.00,WSW,240,0.0,2.0,47,0.00,,,0.00,Wunderground v.1.15,2013-02-11 07:38:00,
2013-02-11 00:44:00,43.6,24.7,30.00,WSW,238,0.0,2.0,47,0.00,,,0.00,Wunderground v.1.15,2013-02-11 07:44:00,
2013-02-11 00:49:00,43.1,25.2,30.00,WSW,238,0.0,2.0,49,0.00,,,0.00,Wunderground v.1.15,2013-02-11 07:49:00,
2013-02-11 00:54:00,41.6,25.3,30.00,WSW,238,0.0,0.0,52,0.00,,,0.00,Wunderground v.1.15,2013-02-11 07:54:00,
2013-02-11 00:59:00,40.0,25.1,30.00,WSW,238,0.0,0.0,55,0.00,,,0.00,Wunderground v.1.15,2013-02-11 07:59:00,
2013-02-11 01:04:00,38.8,25.3,30.00,WSW,238,0.0,0.0,58,0.00,,,0.00,Wunderground v.1.15,2013-02-11 08:04:00,
2013-02-11 01:09:00,38.4,25.7,30.00,WSW,238,0.0,0.0,60,0.00,,,0.00,Wunderground v.1.15,2013-02-11 08:09:00,
2013-02-11 01:14:00,38.0,25.7,30.00,WSW,238,0.0,0.0,61,0.00,,,0.00,Wunderground v.1.15,2013-02-11 08:14:00,
2013-02-11 01:19:00,37.8,25.5,30.00,WSW,238,0.0,0.0,61,0.00,,,0.00,Wunderground v.1.15,2013-02-11 08:19:00,
2013-02-11 01:24:00,37.6,25.7,30.00,East,93,0.0,1.0,62,0.00,,,0.00,Wunderground v.1.15,2013-02-11 08:24:00,
2013-02-11 01:29:00,38.0,25.7,30.00,East,95,0.0,1.0,61,0.00,,,0.00,Wunderground v.1.15,2013-02-11 08:29:00,
2013-02-11 01:34:00,37.8,25.9,30.00,East,95,1.0,1.0,62,0.00,,,0.00,Wunderground v.1.15,2013-02-11 08:34:00,
2013-02-11 01:39:00,37.2,25.4,30.00,East,95,0.0,0.0,62,0.00,,,0.00,Wunderground v.1.15,2013-02-11 08:39:00,
2013-02-11 01:44:00,37.3,25.5,30.00,East,95,0.0,1.0,62,0.00,,,0.00,Wunderground v.1.15,2013-02-11 08:44:00,
2013-02-11 01:49:00,37.3,25.1,30.00,East,95,0.0,0.0,61,0.00,,,0.00,Wunderground v.1.15,2013-02-11 08:49:00,
2013-02-11 01:55:00,37.3,25.1,30.00,East,95,0.0,0.0,61,0.00,,,0.00,Wunderground v.1.15,2013-02-11 08:55:00,
2013-02-11 02:00:00,37.0,25.2,30.00,East,95,0.0,0.0,62,0.00,,,0.00,Wunderground v.1.15,2013-02-11 09:00:00,
2013-02-11 02:05:00,36.5,25.1,30.00,East,95,0.0,0.0,63,0.00,,,0.00,Wunderground v.1.15,2013-02-11 09:05:00,
2013-02-11 02:10:00,36.6,25.2,30.00,East,95,0.0,0.0,63,0.00,,,0.00,Wunderground v.1.15,2013-02-11 09:10:00,
2013-02-11 02:15:00,36.6,25.2,30.00,East,95,0.0,0.0,63,0.00,,,0.00,Wunderground v.1.15,2013-02-11 09:15:00,
2013-02-11 02:20:00,36.0,25.0,30.00,East,95,0.0,0.0,64,0.00,,,0.00,Wunderground v.1.15,2013-02-11 09:20:00,
2013-02-11 02:25:00,35.3,25.4,30.00,East,95,0.0,0.0,67,0.00,,,0.00,Wunderground v.1.15,2013-02-11 09:25:00,
2013-02-11 02:30:00,34.5,25.7,30.00,East,95,0.0,0.0,70,0.00,,,0.00,Wunderground v.1.15,2013-02-11 09:30:00,
2013-02-11 02:35:00,34.5,25.7,30.00,East,95,0.0,0.0,70,0.00,,,0.00,Wunderground v.1.15,2013-02-11 09:35:00,
2013-02-11 02:40:00,34.4,25.6,30.00,East,95,0.0,0.0,70,0.00,,,0.00,Wunderground v.1.15,2013-02-11 09:40:00,
2013-02-11 02:45:00,34.2,25.8,30.00,East,95,0.0,0.0,71,0.00,,,0.00,Wunderground v.1.15,2013-02-11 09:45:00,
2013-02-11 02:50:00,33.5,26.1,30.00,East,95,0.0,0.0,74,0.00,,,0.00,Wunderground v.1.15,2013-02-11 09:50:00,
2013-02-11 02:55:00,33.4,26.0,30.00,East,95,0.0,0.0,74,0.00,,,0.00,Wunderground v.1.15,2013-02-11 09:55:00,
2013-02-11 03:00:00,33.1,26.0,29.99,East,95,0.0,0.0,75,0.00,,,0.00,Wunderground v.1.15,2013-02-11 10:00:00,
2013-02-11 03:05:00,33.5,26.1,30.00,East,95,0.0,0.0,74,0.00,,,0.00,Wunderground v.1.15,2013-02-11 10:05:00,
2013-02-11 03:10:00,33.9,26.2,30.00,East,95,0.0,0.0,73,0.00,,,0.00,Wunderground v.1.15,2013-02-11 10:10:00,
2013-02-11 03:16:00,34.9,25.8,29.99,East,95,0.0,0.0,69,0.00,,,0.00,Wunderground v.1.15,2013-02-11 10:16:00,
2013-02-11 03:21:00,34.7,25.9,29.99,East,95,0.0,0.0,70,0.00,,,0.00,Wunderground v.1.15,2013-02-11 10:21:00,
2013-02-11 03:26:00,34.2,25.8,29.99,East,95,0.0,0.0,71,0.00,,,0.00,Wunderground v.1.15,2013-02-11 10:26:00,
2013-02-11 03:31:00,35.1,25.6,29.99,East,95,0.0,0.0,68,0.00,,,0.00,Wunderground v.1.15,2013-02-11 10:31:00,
2013-02-11 03:36:00,35.6,25.4,29.99,East,95,0.0,0.0,66,0.00,,,0.00,Wunderground v.1.15,2013-02-11 10:36:00,
2013-02-11 03:41:00,35.8,25.2,29.99,East,95,0.0,0.0,65,0.00,,,0.00,Wunderground v.1.15,2013-02-11 10:41:00,
2013-02-11 03:46:00,36.0,25.0,29.99,East,95,0.0,0.0,64,0.00,,,0.00,Wunderground v.1.15,2013-02-11 10:46:00,
2013-02-11 03:51:00,36.2,25.2,29.99,East,95,0.0,0.0,64,0.00,,,0.00,Wunderground v.1.15,2013-02-11 10:51:00,
2013-02-11 03:57:00,36.2,24.8,29.99,East,95,0.0,0.0,63,0.00,,,0.00,Wunderground v.1.15,2013-02-11 10:57:00,
2013-02-11 04:02:00,36.1,25.1,29.99,East,95,0.0,0.0,64,0.00,,,0.00,Wunderground v.1.15,2013-02-11 11:02:00,
2013-02-11 04:07:00,36.4,25.0,29.98,East,95,0.0,0.0,63,0.00,,,0.00,Wunderground v.1.15,2013-02-11 11:07:00,
2013-02-11 04:12:00,36.1,25.1,29.98,East,95,1.0,1.0,64,0.00,,,0.00,Wunderground v.1.15,2013-02-11 11:12:00,
2013-02-11 04:17:00,36.2,25.2,29.98,East,95,0.0,1.0,64,0.00,,,0.00,Wunderground v.1.15,2013-02-11 11:17:00,
2013-02-11 04:22:00,36.4,25.4,29.98,East,95,0.0,0.0,64,0.00,,,0.00,Wunderground v.1.15,2013-02-11 11:22:00,
2013-02-11 04:27:00,34.5,25.0,29.98,East,95,0.0,0.0,68,0.00,,,0.00,Wunderground v.1.15,2013-02-11 11:27:00,
2013-02-11 04:32:00,33.2,25.1,29.98,East,95,0.0,0.0,72,0.00,,,0.00,Wunderground v.1.15,2013-02-11 11:32:00,
2013-02-11 04:37:00,32.8,25.1,29.98,East,95,0.0,0.0,73,0.00,,,0.00,Wunderground v.1.15,2013-02-11 11:37:00,
2013-02-11 04:43:00,32.9,25.2,29.98,East,95,0.0,0.0,73,0.00,,,0.00,Wunderground v.1.15,2013-02-11 11:43:00,
2013-02-11 04:48:00,32.8,25.7,29.98,East,95,0.0,0.0,75,0.00,,,0.00,Wunderground v.1.15,2013-02-11 11:48:00,
2013-02-11 04:53:00,32.2,25.5,29.98,East,95,0.0,0.0,76,0.00,,,0.00,Wunderground v.1.15,2013-02-11 11:53:00,
2013-02-11 04:58:00,31.6,25.5,29.99,East,95,0.0,0.0,78,0.00,,,0.00,Wunderground v.1.15,2013-02-11 11:58:00,
2013-02-11 05:03:00,31.7,25.6,29.99,East,95,0.0,0.0,78,0.00,,,0.00,Wunderground v.1.15,2013-02-11 12:03:00,
2013-02-11 05:08:00,31.3,25.5,29.99,East,95,0.0,0.0,79,0.00,,,0.00,Wunderground v.1.15,2013-02-11 12:08:00,
2013-02-11 05:13:00,31.7,25.6,29.99,East,95,0.0,0.0,78,0.00,,,0.00,Wunderground v.1.15,2013-02-11 12:13:00,
2013-02-11 05:19:00,31.3,25.2,29.99,East,95,0.0,0.0,78,0.00,,,0.00,Wunderground v.1.15,2013-02-11 12:19:00,
2013-02-11 05:24:00,31.4,25.6,29.99,East,95,0.0,0.0,79,0.00,,,0.00,Wunderground v.1.15,2013-02-11 12:24:00,
2013-02-11 05:29:00,31.2,25.7,29.99,East,95,0.0,0.0,80,0.00,,,0.00,Wunderground v.1.15,2013-02-11 12:29:00,
2013-02-11 05:34:00,31.1,25.7,29.99,East,95,0.0,0.0,80,0.00,,,0.00,Wunderground v.1.15,2013-02-11 12:34:00,
2013-02-11 05:39:00,30.7,25.6,29.99,East,95,0.0,0.0,81,0.00,,,0.00,Wunderground v.1.15,2013-02-11 12:39:00,
2013-02-11 05:44:00,30.5,25.4,29.99,East,95,0.0,0.0,81,0.00,,,0.00,Wunderground v.1.15,2013-02-11 12:44:00,
2013-02-11 05:49:00,30.7,25.6,30.00,East,95,0.0,0.0,81,0.00,,,0.00,Wunderground v.1.15,2013-02-11 12:49:00,
2013-02-11 05:54:00,30.5,25.4,30.00,East,95,0.0,0.0,81,0.00,,,0.00,Wunderground v.1.15,2013-02-11 12:54:00,
2013-02-11 06:00:00,30.7,25.6,30.00,East,95,0.0,0.0,81,0.00,,,0.00,Wunderground v.1.15,2013-02-11 13:00:00,
2013-02-11 06:05:00,31.0,25.6,30.00,East,95,0.0,1.0,80,0.00,,,0.00,Wunderground v.1.15,2013-02-11 13:05:00,
2013-02-11 06:10:00,31.2,25.4,30.00,East,95,1.0,1.0,79,0.00,,,0.00,Wunderground v.1.15,2013-02-11 13:10:00,
2013-02-11 06:15:00,31.4,25.3,30.00,East,95,0.0,1.0,78,0.00,,,0.00,Wunderground v.1.15,2013-02-11 13:15:00,
2013-02-11 06:20:00,31.6,25.2,30.00,East,96,0.0,0.0,77,0.00,,,0.00,Wunderground v.1.15,2013-02-11 13:20:00,
2013-02-11 06:25:00,31.8,25.1,30.01,East,96,0.0,1.0,76,0.00,,,0.00,Wunderground v.1.15,2013-02-11 13:25:00,
2013-02-11 06:30:00,31.7,25.0,30.01,East,96,0.0,0.0,76,0.00,,,0.00,Wunderground v.1.15,2013-02-11 13:30:00,
2013-02-11 06:35:00,31.1,25.0,30.01,East,96,0.0,0.0,78,0.00,,,0.00,Wunderground v.1.15,2013-02-11 13:35:00,
2013-02-11 06:40:00,30.8,25.4,30.01,East,96,0.0,0.0,80,0.00,,,0.00,Wunderground v.1.15,2013-02-11 13:40:00,
2013-02-11 06:45:00,30.5,25.1,30.01,East,96,0.0,1.0,80,0.00,,,0.00,Wunderground v.1.15,2013-02-11 13:45:00,
2013-02-11 06:50:00,30.9,24.8,30.01,East,96,0.0,0.0,78,0.00,,,0.00,Wunderground v.1.15,2013-02-11 13:50:00,
2013-02-11 06:56:00,31.2,25.1,30.01,East,96,0.0,1.0,78,0.00,,,0.00,Wunderground v.1.15,2013-02-11 13:56:00,
2013-02-11 07:01:00,31.3,24.9,30.02,East,96,0.0,0.0,77,0.00,,,0.00,Wunderground v.1.15,2013-02-11 14:01:00,
2013-02-11 07:06:00,31.3,24.9,30.02,East,96,0.0,1.0,77,0.00,,,0.00,Wunderground v.1.15,2013-02-11 14:06:00,
2013-02-11 07:11:00,31.3,24.6,30.02,East,96,0.0,0.0,76,0.00,,,0.00,Wunderground v.1.15,2013-02-11 14:11:00,
2013-02-11 07:16:00,31.2,24.8,30.02,East,96,0.0,0.0,77,0.00,,,0.00,Wunderground v.1.15,2013-02-11 14:16:00,
2013-02-11 07:21:00,31.2,24.8,30.02,East,96,0.0,0.0,77,0.00,,,0.00,Wunderground v.1.15,2013-02-11 14:21:00,
2013-02-11 07:26:00,31.7,25.3,30.02,East,96,0.0,1.0,77,0.00,,,0.00,Wunderground v.1.15,2013-02-11 14:26:00,
2013-02-11 07:32:00,32.2,25.5,30.02,East,96,0.0,0.0,76,0.00,,,0.00,Wunderground v.1.15,2013-02-11 14:32:00,
2013-02-11 07:37:00,32.7,25.6,30.03,East,96,1.0,1.0,75,0.00,,,0.00,Wunderground v.1.15,2013-02-11 14:37:00,
2013-02-11 07:42:00,33.3,25.9,30.03,East,96,1.0,1.0,74,0.00,,,0.00,Wunderground v.1.15,2013-02-11 14:42:00,
2013-02-11 07:47:00,33.8,25.7,30.03,East,96,0.0,1.0,72,0.00,,,0.00,Wunderground v.1.15,2013-02-11 14:47:00,
2013-02-11 07:52:00,34.2,25.8,30.03,East,96,0.0,2.0,71,0.00,,,0.00,Wunderground v.1.15,2013-02-11 14:52:00,
2013-02-11 07:57:00,34.6,25.8,30.03,ESE,118,0.0,2.0,70,0.00,,,0.00,Wunderground v.1.15,2013-02-11 14:57:00,
2013-02-11 08:02:00,35.1,25.6,30.03,SE,139,2.0,3.0,68,0.00,,,0.00,Wunderground v.1.15,2013-02-11 15:02:00,
2013-02-11 08:07:00,35.7,26.2,30.04,ESE,123,0.0,3.0,68,0.00,,,0.00,Wunderground v.1.15,2013-02-11 15:07:00,
2013-02-11 08:12:00,36.5,26.2,30.04,SE,130,0.0,3.0,66,0.00,,,0.00,Wunderground v.1.15,2013-02-11 15:12:00,
2013-02-11 08:17:00,37.4,26.3,30.04,SE,134,0.0,4.0,64,0.00,,,0.00,Wunderground v.1.15,2013-02-11 15:17:00,
2013-02-11 08:22:00,38.3,26.4,30.04,SE,137,3.0,4.0,62,0.00,,,0.00,Wunderground v.1.15,2013-02-11 15:22:00,
2013-02-11 08:27:00,38.8,26.1,30.04,SE,142,3.0,5.0,60,0.00,,,0.00,Wunderground v.1.15,2013-02-11 15:27:00,
2013-02-11 08:33:00,39.5,25.9,30.05,ESE,119,2.0,3.0,58,0.00,,,0.00,Wunderground v.1.15,2013-02-11 15:33:00,
2013-02-11 08:38:00,39.8,25.8,30.05,SE,128,2.0,4.0,57,0.00,,,0.00,Wunderground v.1.15,2013-02-11 15:38:00,
2013-02-11 08:43:00,40.0,25.6,30.05,SE,136,4.0,4.0,56,0.00,,,0.00,Wunderground v.1.15,2013-02-11 15:43:00,
2013-02-11 08:48:00,41.2,26.2,30.05,ESE,123,1.0,5.0,55,0.00,,,0.00,Wunderground v.1.15,2013-02-11 15:48:00,
2013-02-11 08:53:00,42.2,26.3,30.05,ESE,121,1.0,4.0,53,0.00,,,0.00,Wunderground v.1.15,2013-02-11 15:53:00,
2013-02-11 08:58:00,43.0,26.6,30.05,ESE,117,1.0,4.0,52,0.00,,,0.00,Wunderground v.1.15,2013-02-11 15:58:00,
2013-02-11 09:03:00,43.8,26.3,30.05,ESE,107,2.0,4.0,50,0.00,,,0.00,Wunderground v.1.15,2013-02-11 16:03:00,
2013-02-11 09:08:00,44.0,26.5,30.05,ESE,114,2.0,4.0,50,0.00,,,0.00,Wunderground v.1.15,2013-02-11 16:08:00,
2013-02-11 09:13:00,44.1,26.6,30.05,East,99,2.0,4.0,50,0.00,,,0.00,Wunderground v.1.15,2013-02-11 16:13:00,
2013-02-11 09:18:00,43.9,26.0,30.05,ENE,73,2.0,4.0,49,0.00,,,0.00,Wunderground v.1.15,2013-02-11 16:18:00,
2013-02-11 09:23:00,43.4,26.0,30.05,East,89,1.0,3.0,50,0.00,,,0.00,Wunderground v.1.15,2013-02-11 16:23:00,
2013-02-11 09:28:00,44.0,27.0,30.05,East,79,3.0,3.0,51,0.00,,,0.00,Wunderground v.1.15,2013-02-11 16:28:00,
2013-02-11 09:33:00,45.9,27.8,30.05,ESE,105,3.0,3.0,49,0.00,,,0.00,Wunderground v.1.15,2013-02-11 16:33:00,
2013-02-11 09:38:00,46.9,27.2,30.05,ESE,121,2.0,4.0,46,0.00,,,0.00,Wunderground v.1.15,2013-02-11 16:38:00,
2013-02-11 09:44:00,46.7,27.0,30.05,East,98,2.0,5.0,46,0.00,,,0.00,Wunderground v.1.15,2013-02-11 16:44:00,
2013-02-11 09:49:00,47.8,27.5,30.05,SSE,166,3.0,9.0,45,0.00,,,0.00,Wunderground v.1.15,2013-02-11 16:49:00,
2013-02-11 09:54:00,48.8,28.4,30.06,SSE,157,6.0,7.0,45,0.00,,,0.00,Wunderground v.1.15,2013-02-11 16:54:00,
2013-02-11 09:59:00,49.7,28.6,30.05,SSE,157,3.0,8.0,44,0.00,,,0.00,Wunderground v.1.15,2013-02-11 16:59:00,
2013-02-11 10:04:00,50.1,29.0,30.05,SSW,198,1.0,7.0,44,0.00,,,0.00,Wunderground v.1.15,2013-02-11 17:04:00,
2013-02-11 10:09:00,50.5,28.8,30.05,WSW,248,4.0,10.0,43,0.00,,,0.00,Wunderground v.1.15,2013-02-11 17:09:00,
2013-02-11 10:14:00,50.6,28.9,30.05,SW,234,2.0,6.0,43,0.00,,,0.00,Wunderground v.1.15,2013-02-11 17:14:00,
2013-02-11 10:19:00,51.5,28.6,30.05,WSW,253,6.0,6.0,41,0.00,,,0.00,Wunderground v.1.15,2013-02-11 17:19:00,
2013-02-11 10:24:00,52.5,28.8,30.05,South,186,7.0,7.0,40,0.00,,,0.00,Wunderground v.1.15,2013-02-11 17:24:00,
2013-02-11 10:29:00,52.6,29.5,30.05,South,169,5.0,5.0,41,0.00,,,0.00,Wunderground v.1.15,2013-02-11 17:29:00,
2013-02-11 10:34:00,53.1,29.4,30.05,South,170,8.0,11.0,40,0.00,,,0.00,Wunderground v.1.15,2013-02-11 17:34:00,
2013-02-11 10:40:00,52.6,28.9,30.05,SE,132,5.0,5.0,40,0.00,,,0.00,Wunderground v.1.15,2013-02-11 17:40:00,
2013-02-11 10:45:00,51.8,29.4,30.05,SSW,200,7.0,12.0,42,0.00,,,0.00,Wunderground v.1.15,2013-02-11 17:45:00,
2013-02-11 10:50:00,52.1,28.5,30.05,SSE,167,3.0,5.0,40,0.00,,,0.00,Wunderground v.1.15,2013-02-11 17:50:00,
2013-02-11 10:55:00,52.5,29.5,30.05,SSE,165,9.0,9.0,41,0.00,,,0.00,Wunderground v.1.15,2013-02-11 17:55:00,
2013-02-11 11:00:00,51.8,28.8,30.05,WSW,237,5.0,5.0,41,0.00,,,0.00,Wunderground v.1.15,2013-02-11 18:00:00,
2013-02-11 11:05:00,52.0,29.0,30.05,SW,231,2.0,8.0,41,0.00,,,0.00,Wunderground v.1.15,2013-02-11 18:05:00,
2013-02-11 11:10:00,51.8,28.8,30.05,SSE,161,2.0,6.0,41,0.00,,,0.00,Wunderground v.1.15,2013-02-11 18:10:00,
2013-02-11 11:16:00,51.2,28.3,30.05,SSE,166,4.0,6.0,41,0.00,,,0.00,Wunderground v.1.15,2013-02-11 18:16:00,
2013-02-11 11:21:00,50.8,28.5,30.05,SE,129,5.0,5.0,42,0.00,,,0.00,Wunderground v.1.15,2013-02-11 18:21:00,
2013-02-11 11:26:00,51.2,28.3,30.04,South,184,2.0,8.0,41,0.00,,,0.00,Wunderground v.1.15,2013-02-11 18:26:00,
2013-02-11 11:31:00,51.1,28.2,30.04,SSE,165,2.0,4.0,41,0.00,,,0.00,Wunderground v.1.15,2013-02-11 18:31:00,
2013-02-11 11:36:00,50.9,28.0,30.04,South,177,5.0,5.0,41,0.00,,,0.00,Wunderground v.1.15,2013-02-11 18:36:00,
2013-02-11 11:41:00,50.7,27.8,30.04,SE,146,1.0,5.0,41,0.00,,,0.00,Wunderground v.1.15,2013-02-11 18:41:00,
2013-02-11 11:46:00,50.6,27.7,30.04,SSW,210,0.0,5.0,41,0.00,,,0.00,Wunderground v.1.15,2013-02-11 18:46:00,
2013-02-11 11:51:00,50.4,28.1,30.04,WSW,250,2.0,3.0,42,0.00,,,0.00,Wunderground v.1.15,2013-02-11 18:51:00,
2013-02-11 11:56:00,50.4,28.1,30.04,West,281,0.0,4.0,42,0.00,,,0.00,Wunderground v.1.15,2013-02-11 18:56:00,
2013-02-11 12:01:00,50.3,28.1,30.04,WNW,284,4.0,8.0,42,0.00,,,0.00,Wunderground v.1.15,2013-02-11 19:01:00,
2013-02-11 12:06:00,49.5,27.9,30.04,West,275,4.0,14.0,43,0.00,,,0.00,Wunderground v.1.15,2013-02-11 19:06:00,
2013-02-11 12:11:00,48.9,28.5,30.04,West,275,13.0,13.0,45,0.00,,,0.00,Wunderground v.1.15,2013-02-11 19:11:00,
2013-02-11 12:16:00,48.4,29.1,30.05,WNW,301,3.0,13.0,47,0.00,,,0.00,Wunderground v.1.15,2013-02-11 19:16:00,
2013-02-11 12:22:00,47.3,32.4,30.05,NW,316,8.0,10.0,56,0.00,,,0.00,Wunderground v.1.15,2013-02-11 19:22:00,
2013-02-11 12:27:00,46.0,32.9,30.05,West,273,3.0,10.0,60,0.00,,,0.00,Wunderground v.1.15,2013-02-11 19:27:00,
2013-02-11 12:32:00,45.7,33.4,30.05,WNW,288,5.0,7.0,62,0.00,,,0.00,Wunderground v.1.15,2013-02-11 19:32:00,
2013-02-11 12:37:00,45.7,34.2,30.06,WNW,282,3.0,11.0,64,0.00,,,0.00,Wunderground v.1.15,2013-02-11 19:37:00,
2013-02-11 12:42:00,45.2,34.1,30.06,WSW,252,1.0,4.0,65,0.00,,,0.00,Wunderground v.1.15,2013-02-11 19:42:00,
2013-02-11 12:47:00,45.1,34.0,30.06,NW,323,6.0,7.0,65,0.00,,,0.00,Wunderground v.1.15,2013-02-11 19:47:00,
2013-02-11 12:52:00,45.0,34.7,30.05,WNW,290,1.0,6.0,67,0.00,,,0.00,Wunderground v.1.15,2013-02-11 19:52:00,
2013-02-11 12:57:00,44.9,34.2,30.05,West,281,2.0,7.0,66,0.00,,,0.00,Wunderground v.1.15,2013-02-11 19:57:00,
2013-02-11 13:02:00,45.1,35.2,30.05,WNW,293,3.0,4.0,68,0.00,,,0.00,Wunderground v.1.15,2013-02-11 20:02:00,
2013-02-11 13:07:00,45.5,34.4,30.05,WNW,294,3.0,9.0,65,0.00,,,0.00,Wunderground v.1.15,2013-02-11 20:07:00,
2013-02-11 13:13:00,45.3,33.8,30.05,WNW,302,3.0,9.0,64,0.00,,,0.00,Wunderground v.1.15,2013-02-11 20:13:00,
2013-02-11 13:18:00,45.2,34.1,30.05,NW,318,4.0,9.0,65,0.00,,,0.00,Wunderground v.1.15,2013-02-11 20:18:00,
2013-02-11 13:23:00,45.2,32.9,30.05,NW,318,6.0,9.0,62,0.00,,,0.00,Wunderground v.1.15,2013-02-11 20:23:00,
2013-02-11 13:28:00,45.4,32.7,30.04,NW,313,6.0,9.0,61,0.00,,,0.00,Wunderground v.1.15,2013-02-11 20:28:00,
2013-02-11 13:33:00,45.4,33.1,30.04,NW,325,5.0,5.0,62,0.00,,,0.00,Wunderground v.1.15,2013-02-11 20:33:00,
2013-02-11 13:38:00,45.3,32.6,30.05,NNW,327,2.0,8.0,61,0.00,,,0.00,Wunderground v.1.15,2013-02-11 20:38:00,
2013-02-11 13:43:00,44.9,32.3,30.04,WSW,248,5.0,6.0,61,0.00,,,0.00,Wunderground v.1.15,2013-02-11 20:43:00,
2013-02-11 13:48:00,44.9,33.1,30.04,North,355,5.0,6.0,63,0.00,,,0.00,Wunderground v.1.15,2013-02-11 20:48:00,
2013-02-11 13:53:00,44.7,33.3,30.05,West,276,3.0,8.0,64,0.00,,,0.00,Wunderground v.1.15,2013-02-11 20:53:00,
2013-02-11 13:58:00,44.1,34.6,30.05,WNW,295,11.0,11.0,69,0.00,,,0.00,Wunderground v.1.15,2013-02-11 20:58:00,
2013-02-11 14:04:00,43.5,35.1,30.05,WNW,299,7.0,12.0,72,0.00,,,0.01,Wunderground v.1.15,2013-02-11 21:04:00,
2013-02-11 14:09:00,42.7,35.7,30.05,NW,315,2.0,12.0,76,0.00,,,0.01,Wunderground v.1.15,2013-02-11 21:09:00,
2013-02-11 14:14:00,42.0,35.6,30.05,NW,319,4.0,9.0,78,0.00,,,0.01,Wunderground v.1.15,2013-02-11 21:14:00,
2013-02-11 14:19:00,41.8,36.1,30.05,NW,311,4.0,9.0,80,0.00,,,0.01,Wunderground v.1.15,2013-02-11 21:19:00,
2013-02-11 14:24:00,41.8,37.0,30.06,NW,320,2.0,4.0,83,0.00,,,0.01,Wunderground v.1.15,2013-02-11 21:24:00,
2013-02-11 14:29:00,41.5,36.1,30.06,NW,315,0.0,5.0,81,0.00,,,0.01,Wunderground v.1.15,2013-02-11 21:29:00,
2013-02-11 14:34:00,41.2,36.1,30.06,NW,314,2.0,3.0,82,0.00,,,0.01,Wunderground v.1.15,2013-02-11 21:34:00,
2013-02-11 14:39:00,41.1,35.7,30.06,NW,319,0.0,3.0,81,0.00,,,0.01,Wunderground v.1.15,2013-02-11 21:39:00,
2013-02-11 14:44:00,41.1,36.0,30.06,West,265,1.0,2.0,82,0.00,,,0.01,Wunderground v.1.15,2013-02-11 21:44:00,
2013-02-11 14:49:00,41.1,36.3,30.07,West,264,2.0,2.0,83,0.00,,,0.01,Wunderground v.1.15,2013-02-11 21:49:00,
2013-02-11 14:55:00,41.0,35.9,30.07,West,264,0.0,2.0,82,0.00,,,0.02,Wunderground v.1.15,2013-02-11 21:55:00,
2013-02-11 15:00:00,40.7,35.6,30.07,WNW,282,1.0,1.0,82,0.09,,,0.03,Wunderground v.1.15,2013-02-11 22:00:00,
2013-02-11 15:05:00,40.5,36.0,30.06,North,355,2.0,4.0,84,0.09,,,0.03,Wunderground v.1.15,2013-02-11 22:05:00,
2013-02-11 15:10:00,40.0,35.6,30.07,NNE,18,0.0,2.0,84,0.06,,,0.04,Wunderground v.1.15,2013-02-11 22:10:00,
2013-02-11 15:15:00,39.8,35.7,30.07,NNW,348,0.0,2.0,85,0.16,,,0.05,Wunderground v.1.15,2013-02-11 22:15:00,
2013-02-11 15:20:00,39.6,35.8,30.07,NNW,348,0.0,1.0,86,0.11,,,0.06,Wunderground v.1.15,2013-02-11 22:20:00,
2013-02-11 15:25:00,39.5,35.7,30.07,North,355,2.0,3.0,86,0.13,,,0.07,Wunderground v.1.15,2013-02-11 22:25:00,
2013-02-11 15:30:00,39.4,35.9,30.07,NW,321,1.0,1.0,87,0.08,,,0.08,Wunderground v.1.15,2013-02-11 22:30:00,
2013-02-11 15:35:00,39.2,35.7,30.07,NW,314,1.0,3.0,87,0.13,,,0.09,Wunderground v.1.15,2013-02-11 22:35:00,
2013-02-11 15:40:00,39.2,35.9,30.07,WNW,298,2.0,3.0,88,0.08,,,0.09,Wunderground v.1.15,2013-02-11 22:40:00,
2013-02-11 15:45:00,39.1,35.8,30.07,West,281,3.0,3.0,88,0.05,,,0.09,Wunderground v.1.15,2013-02-11 22:45:00,
2013-02-11 15:51:00,38.9,35.6,30.07,WNW,296,1.0,2.0,88,0.04,,,0.10,Wunderground v.1.15,2013-02-11 22:51:00,
2013-02-11 15:56:00,38.8,35.6,30.07,West,281,3.0,3.0,88,0.04,,,0.10,Wunderground v.1.15,2013-02-11 22:56:00,
2013-02-11 16:01:00,38.6,35.4,30.07,WNW,289,2.0,2.0,88,0.08,,,0.11,Wunderground v.1.15,2013-02-11 23:01:00,
2013-02-11 16:06:00,38.6,35.6,30.07,West,277,1.0,2.0,89,0.07,,,0.12,Wunderground v.1.15,2013-02-11 23:06:00,
2013-02-11 16:11:00,38.6,35.4,30.08,West,277,0.0,1.0,88,0.07,,,0.12,Wunderground v.1.15,2013-02-11 23:11:00,
2013-02-11 16:16:00,38.7,35.7,30.07,West,277,0.0,1.0,89,0.06,,,0.12,Wunderground v.1.15,2013-02-11 23:16:00,
2013-02-11 16:21:00,38.7,35.5,30.08,West,277,0.0,0.0,88,0.06,,,0.13,Wunderground v.1.15,2013-02-11 23:21:00,
2013-02-11 16:26:00,38.8,35.6,30.08,West,277,1.0,1.0,88,0.06,,,0.13,Wunderground v.1.15,2013-02-11 23:26:00,
2013-02-11 16:32:00,38.8,35.6,30.08,West,277,0.0,0.0,88,0.04,,,0.13,Wunderground v.1.15,2013-02-11 23:32:00,
2013-02-11 16:37:00,38.9,35.6,30.08,West,277,1.0,1.0,88,0.00,,,0.13,Wunderground v.1.15,2013-02-11 23:37:00,
2013-02-11 16:42:00,38.8,35.8,30.08,WNW,283,0.0,1.0,89,0.00,,,0.13,Wunderground v.1.15,2013-02-11 23:42:00,
2013-02-11 16:47:00,39.1,36.4,30.07,WNW,286,0.0,1.0,90,0.00,,,0.13,Wunderground v.1.15,2013-02-11 23:47:00,
2013-02-11 16:52:00,39.0,36.0,30.07,WNW,286,0.0,0.0,89,0.00,,,0.13,Wunderground v.1.15,2013-02-11 23:52:00,
2013-02-11 16:57:00,39.0,35.7,30.07,WNW,286,0.0,0.0,88,0.00,,,0.13,Wunderground v.1.15,2013-02-11 23:57:00,
2013-02-11 17:02:00,39.1,36.1,30.07,WNW,286,0.0,0.0,89,0.00,,,0.13,Wunderground v.1.15,2013-02-12 00:02:00,
2013-02-11 17:07:00,39.2,36.2,30.08,WNW,286,1.0,1.0,89,0.00,,,0.13,Wunderground v.1.15,2013-02-12 00:07:00,
2013-02-11 17:13:00,39.2,35.9,30.08,West,279,1.0,1.0,88,0.00,,,0.13,Wunderground v.1.15,2013-02-12 00:13:00,
2013-02-11 17:18:00,39.3,36.0,30.08,WSW,249,0.0,2.0,88,0.00,,,0.13,Wunderground v.1.15,2013-02-12 00:18:00,
2013-02-11 17:23:00,39.3,36.0,30.08,WSW,257,0.0,1.0,88,0.00,,,0.13,Wunderground v.1.15,2013-02-12 00:23:00,
2013-02-11 17:28:00,39.3,36.0,30.08,West,261,2.0,3.0,88,0.00,,,0.13,Wunderground v.1.15,2013-02-12 00:28:00,
2013-02-11 17:33:00,39.4,35.9,30.08,WSW,257,1.0,2.0,87,0.00,,,0.13,Wunderground v.1.15,2013-02-12 00:33:00,
2013-02-11 17:38:00,39.5,36.2,30.09,WSW,257,0.0,2.0,88,0.00,,,0.13,Wunderground v.1.15,2013-02-12 00:38:00,
2013-02-11 17:43:00,39.5,36.0,30.09,WSW,255,0.0,1.0,87,0.00,,,0.13,Wunderground v.1.15,2013-02-12 00:43:00,
2013-02-11 17:48:00,39.6,36.3,30.08,SW,236,0.0,1.0,88,0.00,,,0.13,Wunderground v.1.15,2013-02-12 00:48:00,
2013-02-11 17:54:00,39.5,36.2,30.09,South,184,2.0,2.0,88,0.00,,,0.13,Wunderground v.1.15,2013-02-12 00:54:00,
2013-02-11 17:59:00,39.6,36.3,30.10,WSW,252,1.0,2.0,88,0.00,,,0.13,Wunderground v.1.15,2013-02-12 00:59:00,
2013-02-11 18:04:00,39.6,36.3,30.10,WSW,252,0.0,2.0,88,0.00,,,0.13,Wunderground v.1.15,2013-02-12 01:04:00,
2013-02-11 18:09:00,39.6,36.3,30.10,WSW,252,0.0,2.0,88,0.00,,,0.13,Wunderground v.1.15,2013-02-12 01:09:00,
2013-02-11 18:14:00,39.7,36.1,30.10,WSW,252,0.0,2.0,87,0.00,,,0.13,Wunderground v.1.15,2013-02-12 01:14:00,
2013-02-11 18:19:00,39.7,36.7,30.10,WSW,252,0.0,2.0,89,0.00,,,0.13,Wunderground v.1.15,2013-02-12 01:19:00,
2013-02-11 18:24:00,39.7,36.4,30.10,WSW,257,2.0,2.0,88,0.00,,,0.13,Wunderground v.1.15,2013-02-12 01:24:00,
2013-02-11 18:29:00,39.7,36.7,30.11,West,264,4.0,4.0,89,0.00,,,0.13,Wunderground v.1.15,2013-02-12 01:29:00,
2013-02-11 18:34:00,39.7,36.4,30.11,WSW,242,0.0,4.0,88,0.00,,,0.13,Wunderground v.1.15,2013-02-12 01:34:00,
2013-02-11 18:39:00,39.7,36.4,30.11,WSW,250,1.0,2.0,88,0.00,,,0.13,Wunderground v.1.15,2013-02-12 01:39:00,
2013-02-11 18:45:00,39.7,36.4,30.11,West,263,1.0,3.0,88,0.00,,,0.13,Wunderground v.1.15,2013-02-12 01:45:00,
2013-02-11 18:50:00,39.7,36.4,30.11,WSW,246,0.0,2.0,88,0.00,,,0.13,Wunderground v.1.15,2013-02-12 01:50:00,
2013-02-11 18:55:00,39.7,36.7,30.12,WSW,248,1.0,2.0,89,0.00,,,0.13,Wunderground v.1.15,2013-02-12 01:55:00,
2013-02-11 19:00:00,39.8,36.8,30.12,WSW,248,1.0,1.0,89,0.00,,,0.13,Wunderground v.1.15,2013-02-12 02:00:00,
2013-02-11 19:05:00,39.8,36.8,30.12,WSW,252,2.0,2.0,89,0.00,,,0.13,Wunderground v.1.15,2013-02-12 02:05:00,
2013-02-11 19:10:00,39.9,36.9,30.12,West,272,1.0,1.0,89,0.00,,,0.13,Wunderground v.1.15,2013-02-12 02:10:00,
2013-02-11 19:15:00,39.9,36.9,30.12,WNW,282,0.0,4.0,89,0.00,,,0.13,Wunderground v.1.15,2013-02-12 02:15:00,
2013-02-11 19:20:00,40.0,36.7,30.13,WNW,283,0.0,2.0,88,0.00,,,0.13,Wunderground v.1.15,2013-02-12 02:20:00,
2013-02-11 19:25:00,40.0,36.7,30.13,WNW,290,1.0,2.0,88,0.00,,,0.13,Wunderground v.1.15,2013-02-12 02:25:00,
2013-02-11 19:30:00,39.8,36.2,30.14,NW,307,3.0,8.0,87,0.00,,,0.13,Wunderground v.1.15,2013-02-12 02:30:00,
2013-02-11 19:36:00,38.9,35.1,30.14,West,277,10.0,11.0,86,0.00,,,0.13,Wunderground v.1.15,2013-02-12 02:36:00,
2013-02-11 19:41:00,38.2,34.7,30.14,WNW,290,7.0,14.0,87,0.00,,,0.13,Wunderground v.1.15,2013-02-12 02:41:00,
2013-02-11 19:46:00,37.8,34.6,30.14,West,278,5.0,14.0,88,0.00,,,0.14,Wunderground v.1.15,2013-02-12 02:46:00,
2013-02-11 19:51:00,37.4,34.2,30.14,WNW,287,7.0,7.0,88,0.00,,,0.14,Wunderground v.1.15,2013-02-12 02:51:00,
2013-02-11 19:56:00,37.1,34.2,30.15,West,277,5.0,8.0,89,0.00,,,0.14,Wunderground v.1.15,2013-02-12 02:56:00,
2013-02-11 20:01:00,36.8,34.1,30.15,WSW,244,7.0,7.0,90,0.00,,,0.14,Wunderground v.1.15,2013-02-12 03:01:00,
2013-02-11 20:06:00,36.8,34.1,30.15,West,279,1.0,7.0,90,0.00,,,0.14,Wunderground v.1.15,2013-02-12 03:06:00,
2013-02-11 20:12:00,36.8,34.1,30.14,West,280,2.0,5.0,90,0.00,,,0.14,Wunderground v.1.15,2013-02-12 03:12:00,
2013-02-11 20:17:00,37.0,34.3,30.14,WSW,251,0.0,5.0,90,0.00,,,0.14,Wunderground v.1.15,2013-02-12 03:17:00,
2013-02-11 20:22:00,37.3,34.6,30.14,WSW,250,0.0,3.0,90,0.00,,,0.14,Wunderground v.1.15,2013-02-12 03:22:00,
2013-02-11 20:27:00,37.5,34.8,30.14,SW,228,0.0,3.0,90,0.00,,,0.14,Wunderground v.1.15,2013-02-12 03:27:00,
2013-02-11 20:32:00,37.5,34.8,30.15,NNE,19,2.0,3.0,90,0.00,,,0.14,Wunderground v.1.15,2013-02-12 03:32:00,
2013-02-11 20:37:00,37.1,34.4,30.16,NNW,337,3.0,8.0,90,0.00,,,0.14,Wunderground v.1.15,2013-02-12 03:37:00,
2013-02-11 20:42:00,36.9,34.5,30.16,NNW,329,4.0,6.0,91,0.00,,,0.14,Wunderground v.1.15,2013-02-12 03:42:00,
2013-02-11 20:47:00,36.8,34.4,30.17,NNW,344,3.0,6.0,91,0.00,,,0.14,Wunderground v.1.15,2013-02-12 03:47:00,
2013-02-11 20:53:00,36.8,34.7,30.17,North,11,0.0,4.0,92,0.00,,,0.14,Wunderground v.1.15,2013-02-12 03:53:00,
2013-02-11 20:58:00,36.9,34.8,30.17,North,11,0.0,4.0,92,0.00,,,0.14,Wunderground v.1.15,2013-02-12 03:58:00,
2013-02-11 21:03:00,36.9,34.8,30.17,North,11,0.0,0.0,92,0.00,,,0.14,Wunderground v.1.15,2013-02-12 04:03:00,
2013-02-11 21:08:00,36.9,34.8,30.17,North,11,0.0,0.0,92,0.00,,,0.14,Wunderground v.1.15,2013-02-12 04:08:00,
2013-02-11 21:13:00,36.9,34.8,30.17,North,11,0.0,0.0,92,0.00,,,0.14,Wunderground v.1.15,2013-02-12 04:13:00,
2013-02-11 21:18:00,36.9,34.8,30.17,North,11,0.0,0.0,92,0.00,,,0.14,Wunderground v.1.15,2013-02-12 04:18:00,
2013-02-11 21:23:00,36.9,34.8,30.17,North,11,0.0,1.0,92,0.00,,,0.14,Wunderground v.1.15,2013-02-12 04:23:00,
2013-02-11 21:28:00,36.9,34.8,30.17,North,11,0.0,1.0,92,0.00,,,0.14,Wunderground v.1.15,2013-02-12 04:28:00,
2013-02-11 21:33:00,36.8,34.7,30.17,North,11,0.0,0.0,92,0.00,,,0.14,Wunderground v.1.15,2013-02-12 04:33:00,
2013-02-11 21:38:00,36.7,34.6,30.18,North,11,0.0,0.0,92,0.00,,,0.14,Wunderground v.1.15,2013-02-12 04:38:00,
2013-02-11 21:43:00,36.7,34.6,30.18,North,11,0.0,0.0,92,0.00,,,0.14,Wunderground v.1.15,2013-02-12 04:43:00,
2013-02-11 21:48:00,36.3,34.2,30.18,North,11,0.0,0.0,92,0.00,,,0.14,Wunderground v.1.15,2013-02-12 04:48:00,
2013-02-11 21:54:00,36.1,34.0,30.18,NE,54,0.0,1.0,92,0.00,,,0.14,Wunderground v.1.15,2013-02-12 04:54:00,
2013-02-11 21:59:00,35.9,34.1,30.18,NE,54,0.0,1.0,93,0.00,,,0.14,Wunderground v.1.15,2013-02-12 04:59:00,
2013-02-11 22:00:00,35.9,33.8,30.18,NE,54,0.0,0.0,92,0.00,,,0.14,Wunderground v.1.15,2013-02-12 05:00:00,
2013-02-11 22:02:00,35.7,33.6,30.18,NE,54,0.0,0.0,92,0.00,,,0.14,Wunderground v.1.15,2013-02-12 05:02:00,
2013-02-11 22:07:00,35.4,33.6,30.18,NE,54,0.0,0.0,93,0.00,,,0.14,Wunderground v.1.15,2013-02-12 05:07:00,
2013-02-11 22:12:00,35.4,33.6,30.19,ENE,58,0.0,0.0,93,0.00,,,0.14,Wunderground v.1.15,2013-02-12 05:12:00,
2013-02-11 22:17:00,35.5,33.7,30.19,ENE,58,0.0,0.0,93,0.00,,,0.14,Wunderground v.1.15,2013-02-12 05:17:00,
2013-02-11 22:23:00,35.4,33.6,30.19,ENE,58,0.0,0.0,93,0.00,,,0.14,Wunderground v.1.15,2013-02-12 05:23:00,
2013-02-11 22:28:00,35.2,33.4,30.19,ENE,58,0.0,0.0,93,0.00,,,0.14,Wunderground v.1.15,2013-02-12 05:28:00,
2013-02-11 22:33:00,35.2,33.4,30.19,ENE,58,0.0,0.0,93,0.00,,,0.14,Wunderground v.1.15,2013-02-12 05:33:00,
2013-02-11 22:38:00,35.3,33.7,30.20,ENE,58,0.0,0.0,94,0.00,,,0.14,Wunderground v.1.15,2013-02-12 05:38:00,
2013-02-11 22:43:00,35.1,33.3,30.19,ENE,58,0.0,0.0,93,0.00,,,0.14,Wunderground v.1.15,2013-02-12 05:43:00,
2013-02-11 22:48:00,34.7,32.9,30.19,ENE,58,0.0,1.0,93,0.00,,,0.14,Wunderground v.1.15,2013-02-12 05:48:00,
2013-02-11 22:54:00,34.6,32.8,30.19,East,82,0.0,2.0,93,0.00,,,0.14,Wunderground v.1.15,2013-02-12 05:54:00,
2013-02-11 22:59:00,34.6,32.8,30.19,East,82,0.0,2.0,93,0.00,,,0.14,Wunderground v.1.15,2013-02-12 05:59:00,
2013-02-11 23:04:00,34.5,33.0,30.19,East,82,0.0,0.0,94,0.00,,,0.14,Wunderground v.1.15,2013-02-12 06:04:00,
2013-02-11 23:09:00,34.7,33.2,30.19,East,82,0.0,0.0,94,0.00,,,0.14,Wunderground v.1.15,2013-02-12 06:09:00,
2013-02-11 23:14:00,35.0,33.4,30.19,East,82,0.0,0.0,94,0.00,,,0.14,Wunderground v.1.15,2013-02-12 06:14:00,
2013-02-11 23:19:00,35.4,33.8,30.20,East,82,0.0,0.0,94,0.00,,,0.14,Wunderground v.1.15,2013-02-12 06:19:00,
2013-02-11 23:24:00,35.6,34.0,30.20,East,82,0.0,0.0,94,0.00,,,0.14,Wunderground v.1.15,2013-02-12 06:24:00,
2013-02-11 23:29:00,35.8,34.2,30.20,East,82,0.0,0.0,94,0.00,,,0.14,Wunderground v.1.15,2013-02-12 06:29:00,
2013-02-11 23:34:00,35.9,34.3,30.21,East,82,0.0,0.0,94,0.00,,,0.14,Wunderground v.1.15,2013-02-12 06:34:00,
2013-02-11 23:39:00,36.0,34.4,30.21,East,82,0.0,0.0,94,0.00,,,0.14,Wunderground v.1.15,2013-02-12 06:39:00,
2013-02-11 23:45:00,36.1,34.5,30.21,East,82,0.0,0.0,94,0.00,,,0.14,Wunderground v.1.15,2013-02-12 06:45:00,
2013-02-11 23:50:00,36.2,34.6,30.22,East,82,0.0,0.0,94,0.00,,,0.14,Wunderground v.1.15,2013-02-12 06:50:00,
2013-02-11 23:55:00,36.3,34.7,30.22,East,82,0.0,0.0,94,0.00,,,0.14,Wunderground v.1.15,2013-02-12 06:55:00,